Time,TemperatureF,DewpointF,PressureIn,WindDirection,WindDirectionDegrees,WindSpeedMPH,WindSpeedGustMPH,Humidity,HourlyPrecipIn,Conditions,Clouds,dailyrainin,SoftwareType,DateUTC
2013-03-15 00:03:00,33.0,10.0,29.96,North,353,2.0,12.0,38,0.00,,,0.00,,2013-03-15 04:03:00,
2013-03-15 00:12:00,33.0,10.0,29.96,North,353,2.0,12.0,38,0.00,,,0.00,,2013-03-15 04:12:00,
2013-03-15 00:23:00,33.0,10.0,29.96,North,352,2.0,11.0,38,0.00,,,0.00,,2013-03-15 04:23:00,
2013-03-15 00:33:00,33.0,11.0,29.96,North,9,3.0,8.0,39,0.00,,,0.00,,2013-03-15 04:33:00,
2013-03-15 00:43:00,33.0,11.0,29.96,North,9,3.0,8.0,39,0.00,,,0.00,,2013-03-15 04:43:00,
2013-03-15 00:52:00,33.0,11.0,29.96,North,6,3.0,15.0,40,0.00,,,0.00,,2013-03-15 04:52:00,
2013-03-15 01:00:00,32.0,11.0,29.96,North,359,3.0,11.0,41,0.00,,,0.00,,2013-03-15 05:00:00,
2013-03-15 01:02:00,33.0,11.0,29.96,North,8,3.0,10.0,40,0.00,,,0.00,,2013-03-15 05:02:00,
2013-03-15 01:12:00,33.0,11.0,29.96,North,8,3.0,10.0,40,0.00,,,0.00,,2013-03-15 05:12:00,
2013-03-15 01:22:00,32.0,11.0,29.96,North,359,3.0,11.0,41,0.00,,,0.00,,2013-03-15 05:22:00,
2013-03-15 01:32:00,32.0,11.0,29.96,North,359,3.0,11.0,41,0.00,,,0.00,,2013-03-15 05:32:00,
2013-03-15 01:42:00,32.0,11.0,29.96,North,359,3.0,11.0,41,0.00,,,0.00,,2013-03-15 05:42:00,
2013-03-15 01:52:00,32.0,11.0,29.96,North,359,3.0,11.0,41,0.00,,,0.00,,2013-03-15 05:52:00,
2013-03-15 02:22:00,32.0,12.0,29.97,NNW,344,3.0,13.0,42,0.00,,,0.00,,2013-03-15 06:22:00,
2013-03-15 02:32:00,32.0,13.0,29.97,North,356,3.0,12.0,45,0.00,,,0.00,,2013-03-15 06:32:00,
2013-03-15 02:42:00,32.0,13.0,29.97,North,356,3.0,12.0,45,0.00,,,0.00,,2013-03-15 06:42:00,
2013-03-15 02:52:00,32.0,13.0,29.97,North,356,3.0,12.0,45,0.00,,,0.00,,2013-03-15 06:52:00,
2013-03-15 03:02:00,32.0,14.0,29.97,NNW,341,2.0,11.0,46,0.00,,,0.00,,2013-03-15 07:02:00,
2013-03-15 03:12:00,32.0,14.0,29.97,NNW,341,2.0,11.0,46,0.00,,,0.00,,2013-03-15 07:12:00,
2013-03-15 03:22:00,31.0,13.0,29.97,North,353,3.0,9.0,47,0.00,,,0.00,,2013-03-15 07:22:00,
2013-03-15 03:32:00,31.0,13.0,29.96,NNW,344,2.0,12.0,47,0.00,,,0.00,,2013-03-15 07:32:00,
2013-03-15 03:42:00,31.0,13.0,29.96,NNW,344,2.0,12.0,47,0.00,,,0.00,,2013-03-15 07:42:00,
2013-03-15 03:52:00,31.0,14.0,29.96,North,1,2.0,12.0,49,0.00,,,0.00,,2013-03-15 07:52:00,
2013-03-15 04:02:00,31.0,14.0,29.96,NW,326,2.0,8.0,49,0.00,,,0.00,,2013-03-15 08:02:00,
2013-03-15 04:12:00,31.0,14.0,29.96,NW,326,2.0,8.0,49,0.00,,,0.00,,2013-03-15 08:12:00,
2013-03-15 04:23:00,31.0,14.0,29.96,NW,326,2.0,8.0,49,0.00,,,0.00,,2013-03-15 08:23:00,
2013-03-15 04:33:00,31.0,15.0,29.95,NNW,348,2.0,7.0,51,0.00,,,0.00,,2013-03-15 08:33:00,
2013-03-15 04:42:00,31.0,15.0,29.95,NNW,348,2.0,7.0,51,0.00,,,0.00,,2013-03-15 08:42:00,
2013-03-15 04:52:00,31.0,15.0,29.95,North,1,2.0,11.0,51,0.00,,,0.00,,2013-03-15 08:52:00,
2013-03-15 05:02:00,31.0,15.0,29.95,North,1,2.0,11.0,51,0.00,,,0.00,,2013-03-15 09:02:00,
2013-03-15 05:12:00,31.0,15.0,29.95,North,1,2.0,11.0,51,0.00,,,0.00,,2013-03-15 09:12:00,
2013-03-15 05:22:00,31.0,15.0,29.94,North,6,3.0,9.0,51,0.00,,,0.00,,2013-03-15 09:22:00,
2013-03-15 05:33:00,31.0,15.0,29.95,North,354,3.0,10.0,52,0.00,,,0.00,,2013-03-15 09:33:00,
2013-03-15 05:43:00,31.0,15.0,29.95,North,354,3.0,10.0,52,0.00,,,0.00,,2013-03-15 09:43:00,
2013-03-15 05:53:00,31.0,15.0,29.95,North,356,2.0,10.0,52,0.00,,,0.00,,2013-03-15 09:53:00,
2013-03-15 06:03:00,31.0,16.0,29.96,North,5,2.0,12.0,53,0.00,,,0.00,,2013-03-15 10:03:00,
2013-03-15 06:13:00,31.0,16.0,29.96,North,5,2.0,12.0,53,0.00,,,0.00,,2013-03-15 10:13:00,
2013-03-15 06:23:00,31.0,15.0,29.96,North,356,2.0,7.0,52,0.00,,,0.00,,2013-03-15 10:23:00,
2013-03-15 06:33:00,30.0,15.0,29.96,NW,307,1.0,4.0,53,0.00,,,0.00,,2013-03-15 10:33:00,
2013-03-15 06:42:00,30.0,15.0,29.96,NW,307,1.0,4.0,53,0.00,,,0.00,,2013-03-15 10:42:00,
2013-03-15 06:52:00,30.0,15.0,29.96,NW,321,1.0,6.0,54,0.00,,,0.00,,2013-03-15 10:52:00,
2013-03-15 07:03:00,30.0,16.0,29.97,WNW,296,1.0,4.0,56,0.00,,,0.00,,2013-03-15 11:03:00,
2013-03-15 07:12:00,30.0,16.0,29.97,WNW,296,1.0,4.0,56,0.00,,,0.00,,2013-03-15 11:12:00,
2013-03-15 07:23:00,30.0,16.0,29.97,WNW,296,1.0,4.0,56,0.00,,,0.00,,2013-03-15 11:23:00,
2013-03-15 07:32:00,30.0,17.0,29.97,WNW,285,1.0,6.0,57,0.00,,,0.00,,2013-03-15 11:32:00,
2013-03-15 07:42:00,30.0,17.0,29.97,WNW,285,1.0,6.0,57,0.00,,,0.00,,2013-03-15 11:42:00,
2013-03-15 07:52:00,30.0,17.0,29.97,West,279,1.0,4.0,57,0.00,,,0.00,,2013-03-15 11:52:00,
2013-03-15 08:02:00,30.0,17.0,29.97,WNW,292,0.0,1.0,58,0.00,,,0.00,,2013-03-15 12:02:00,
2013-03-15 08:12:00,31.0,17.0,29.98,WNW,284,0.0,3.0,56,0.00,,,0.00,,2013-03-15 12:12:00,
2013-03-15 08:23:00,31.0,17.0,29.98,WNW,284,0.0,3.0,56,0.00,,,0.00,,2013-03-15 12:23:00,
2013-03-15 08:32:00,32.0,17.0,29.97,WNW,283,1.0,3.0,54,0.00,,,0.00,,2013-03-15 12:32:00,
2013-03-15 08:40:00,33.0,17.0,29.97,WNW,282,1.0,4.0,52,0.00,,,0.00,,2013-03-15 12:40:00,
2013-03-15 08:42:00,32.0,17.0,29.97,WNW,283,1.0,3.0,54,0.00,,,0.00,,2013-03-15 12:42:00,
2013-03-15 08:52:00,32.0,17.0,29.97,West,275,1.0,6.0,54,0.00,,,0.00,,2013-03-15 12:52:00,
2013-03-15 09:02:00,33.0,17.0,29.97,WNW,282,1.0,4.0,52,0.00,,,0.00,,2013-03-15 13:02:00,
2013-03-15 09:12:00,33.0,17.0,29.97,WNW,282,1.0,4.0,52,0.00,,,0.00,,2013-03-15 13:12:00,
2013-03-15 09:22:00,33.0,17.0,29.97,WNW,282,1.0,4.0,52,0.00,,,0.00,,2013-03-15 13:22:00,
2013-03-15 09:32:00,33.0,17.0,29.97,WNW,282,1.0,4.0,52,0.00,,,0.00,,2013-03-15 13:32:00,
2013-03-15 09:53:00,34.0,17.0,29.96,WNW,302,2.0,7.0,49,0.00,,,0.00,,2013-03-15 13:53:00,
2013-03-15 10:02:00,34.0,16.0,29.95,WNW,294,1.0,7.0,47,0.00,,,0.00,,2013-03-15 14:02:00,
2013-03-15 10:12:00,34.0,16.0,29.95,WNW,294,1.0,7.0,47,0.00,,,0.00,,2013-03-15 14:12:00,
2013-03-15 10:22:00,35.0,17.0,29.95,NW,306,2.0,6.0,47,0.00,,,0.00,,2013-03-15 14:22:00,
2013-03-15 10:33:00,36.0,16.0,29.94,West,268,1.0,7.0,44,0.00,,,0.00,,2013-03-15 14:33:00,
2013-03-15 10:42:00,36.0,16.0,29.94,West,268,1.0,7.0,44,0.00,,,0.00,,2013-03-15 14:42:00,
2013-03-15 10:52:00,36.0,16.0,29.93,WNW,283,1.0,7.0,43,0.00,,,0.00,,2013-03-15 14:52:00,
2013-03-15 11:02:00,37.0,17.0,29.92,West,271,1.0,3.0,43,0.00,,,0.00,,2013-03-15 15:02:00,
2013-03-15 11:13:00,37.0,17.0,29.92,West,271,1.0,3.0,43,0.00,,,0.00,,2013-03-15 15:13:00,
2013-03-15 11:23:00,37.0,17.0,29.92,West,271,1.0,3.0,43,0.00,,,0.00,,2013-03-15 15:23:00,
2013-03-15 11:33:00,37.0,17.0,29.92,West,271,1.0,3.0,43,0.00,,,0.00,,2013-03-15 15:33:00,
2013-03-15 11:42:00,40.0,19.0,29.90,WSW,239,2.0,9.0,42,0.00,,,0.00,,2013-03-15 15:42:00,
2013-03-15 11:53:00,40.0,19.0,29.90,WSW,239,2.0,9.0,42,0.00,,,0.00,,2013-03-15 15:53:00,
2013-03-15 12:03:00,41.0,19.0,29.89,SW,231,2.0,8.0,41,0.00,,,0.00,,2013-03-15 16:03:00,
2013-03-15 12:13:00,42.0,20.0,29.88,WNW,288,3.0,7.0,41,0.00,,,0.00,,2013-03-15 16:13:00,
2013-03-15 12:23:00,42.0,20.0,29.88,WNW,288,3.0,7.0,41,0.00,,,0.00,,2013-03-15 16:23:00,
2013-03-15 12:32:00,42.0,20.0,29.87,WSW,254,2.0,10.0,41,0.00,,,0.00,,2013-03-15 16:32:00,
2013-03-15 12:42:00,42.0,20.0,29.87,WSW,254,2.0,10.0,41,0.00,,,0.00,,2013-03-15 16:42:00,
2013-03-15 12:52:00,42.0,20.0,29.87,WSW,254,2.0,10.0,41,0.00,,,0.00,,2013-03-15 16:52:00,
2013-03-15 13:02:00,43.0,21.0,29.85,WSW,242,3.0,8.0,41,0.00,,,0.00,,2013-03-15 17:02:00,
2013-03-15 13:12:00,43.0,21.0,29.85,WSW,242,3.0,8.0,41,0.00,,,0.00,,2013-03-15 17:12:00,
2013-03-15 13:22:00,43.0,20.0,29.84,WSW,243,3.0,7.0,40,0.00,,,0.00,,2013-03-15 17:22:00,
2013-03-15 13:32:00,43.0,22.0,29.84,West,263,2.0,8.0,42,0.00,,,0.00,,2013-03-15 17:32:00,
2013-03-15 13:42:00,43.0,22.0,29.84,West,263,2.0,8.0,42,0.00,,,0.00,,2013-03-15 17:42:00,
2013-03-15 13:52:00,43.0,23.0,29.83,NW,308,2.0,7.0,44,0.00,,,0.00,,2013-03-15 17:52:00,
2013-03-15 14:03:00,42.0,23.0,29.82,West,281,1.0,4.0,46,0.00,,,0.00,,2013-03-15 18:03:00,
2013-03-15 14:12:00,42.0,23.0,29.82,West,281,1.0,4.0,46,0.00,,,0.00,,2013-03-15 18:12:00,
2013-03-15 14:22:00,42.0,23.0,29.81,West,264,1.0,7.0,46,0.00,,,0.00,,2013-03-15 18:22:00,
2013-03-15 14:32:00,42.0,23.0,29.81,West,264,1.0,7.0,46,0.00,,,0.00,,2013-03-15 18:32:00,
2013-03-15 14:42:00,42.0,23.0,29.81,West,264,1.0,7.0,46,0.00,,,0.00,,2013-03-15 18:42:00,
2013-03-15 14:52:00,42.0,23.0,29.81,West,264,1.0,7.0,46,0.00,,,0.00,,2013-03-15 18:52:00,
2013-03-15 15:02:00,42.0,25.0,29.79,NW,309,3.0,8.0,51,0.00,,,0.00,,2013-03-15 19:02:00,
2013-03-15 15:12:00,42.0,25.0,29.79,NW,309,3.0,8.0,51,0.00,,,0.00,,2013-03-15 19:12:00,
2013-03-15 15:23:00,42.0,25.0,29.79,NW,309,3.0,8.0,51,0.00,,,0.00,,2013-03-15 19:23:00,
2013-03-15 15:32:00,42.0,27.0,29.77,West,270,2.0,6.0,54,0.00,,,0.00,,2013-03-15 19:32:00,
2013-03-15 15:42:00,42.0,27.0,29.77,West,270,2.0,6.0,54,0.00,,,0.00,,2013-03-15 19:42:00,
2013-03-15 15:53:00,42.0,26.0,29.76,West,259,1.0,4.0,52,0.00,,,0.00,,2013-03-15 19:53:00,
2013-03-15 16:02:00,42.0,26.0,29.76,West,259,1.0,4.0,52,0.00,,,0.00,,2013-03-15 20:02:00,
2013-03-15 16:12:00,42.0,26.0,29.76,West,259,1.0,4.0,52,0.00,,,0.00,,2013-03-15 20:12:00,
2013-03-15 16:22:00,42.0,26.0,29.76,West,259,1.0,4.0,52,0.00,,,0.00,,2013-03-15 20:22:00,
2013-03-15 16:32:00,43.0,26.0,29.74,WSW,252,1.0,7.0,51,0.00,,,0.00,,2013-03-15 20:32:00,
2013-03-15 16:42:00,43.0,26.0,29.74,WSW,252,1.0,7.0,51,0.00,,,0.00,,2013-03-15 20:42:00,
2013-03-15 16:52:00,43.0,26.0,29.74,WSW,252,1.0,7.0,51,0.00,,,0.00,,2013-03-15 20:52:00,
2013-03-15 17:02:00,43.0,26.0,29.74,WSW,252,1.0,7.0,51,0.00,,,0.00,,2013-03-15 21:02:00,
2013-03-15 17:12:00,43.0,26.0,29.74,WSW,252,1.0,7.0,51,0.00,,,0.00,,2013-03-15 21:12:00,
2013-03-15 17:22:00,44.0,27.0,29.72,WNW,286,2.0,5.0,51,0.00,,,0.00,,2013-03-15 21:22:00,
2013-03-15 17:33:00,44.0,27.0,29.72,WNW,301,2.0,5.0,51,0.00,,,0.00,,2013-03-15 21:33:00,
2013-03-15 17:43:00,44.0,27.0,29.72,WNW,301,2.0,5.0,51,0.00,,,0.00,,2013-03-15 21:43:00,
2013-03-15 17:53:00,44.0,27.0,29.72,WNW,301,2.0,5.0,51,0.00,,,0.00,,2013-03-15 21:53:00,
2013-03-15 18:03:00,44.0,27.0,29.72,WNW,301,2.0,5.0,51,0.00,,,0.00,,2013-03-15 22:03:00,
2013-03-15 18:22:00,45.0,28.0,29.72,WNW,301,1.0,9.0,51,0.00,,,0.00,,2013-03-15 22:22:00,
2013-03-15 18:33:00,45.0,28.0,29.72,WNW,301,1.0,9.0,51,0.00,,,0.00,,2013-03-15 22:33:00,
2013-03-15 18:42:00,45.0,28.0,29.72,WNW,301,1.0,9.0,51,0.00,,,0.00,,2013-03-15 22:42:00,
2013-03-15 18:52:00,45.0,28.0,29.72,WNW,301,1.0,9.0,51,0.00,,,0.00,,2013-03-15 22:52:00,
2013-03-15 19:03:00,45.0,29.0,29.73,NW,320,0.0,2.0,53,0.00,,,0.00,,2013-03-15 23:03:00,
2013-03-15 19:12:00,45.0,29.0,29.73,NW,320,0.0,2.0,53,0.00,,,0.00,,2013-03-15 23:12:00,
2013-03-15 19:22:00,45.0,29.0,29.73,NNW,335,0.0,3.0,53,0.00,,,0.00,,2013-03-15 23:22:00,
2013-03-15 19:32:00,45.0,29.0,29.73,NW,314,0.0,4.0,53,0.00,,,0.00,,2013-03-15 23:32:00,
2013-03-15 19:42:00,45.0,29.0,29.73,NW,314,0.0,4.0,53,0.00,,,0.00,,2013-03-15 23:42:00,
2013-03-15 19:53:00,45.0,29.0,29.74,NW,311,1.0,5.0,54,0.00,,,0.00,,2013-03-15 23:53:00,
2013-03-15 20:03:00,46.0,30.0,29.74,NW,314,1.0,6.0,54,0.00,,,0.00,,2013-03-16 00:03:00,
2013-03-15 20:12:00,46.0,30.0,29.74,NW,314,1.0,6.0,54,0.00,,,0.00,,2013-03-16 00:12:00,
2013-03-15 20:22:00,46.0,31.0,29.74,NW,315,1.0,4.0,55,0.00,,,0.00,,2013-03-16 00:22:00,
2013-03-15 20:32:00,46.0,31.0,29.74,NW,315,1.0,4.0,55,0.00,,,0.00,,2013-03-16 00:32:00,
2013-03-15 20:42:00,46.0,31.0,29.74,NW,315,1.0,4.0,55,0.00,,,0.00,,2013-03-16 00:42:00,
2013-03-15 20:52:00,45.0,31.0,29.75,North,349,0.0,2.0,57,0.00,,,0.00,,2013-03-16 00:52:00,
2013-03-15 21:03:00,46.0,32.0,29.75,North,8,2.0,8.0,57,0.00,,,0.00,,2013-03-16 01:03:00,
2013-03-15 21:12:00,46.0,32.0,29.75,North,8,2.0,8.0,57,0.00,,,0.00,,2013-03-16 01:12:00,
2013-03-15 21:22:00,45.0,31.0,29.76,North,357,2.0,9.0,58,0.00,,,0.00,,2013-03-16 01:22:00,
2013-03-15 21:32:00,45.0,32.0,29.76,North,357,1.0,9.0,59,0.00,,,0.00,,2013-03-16 01:32:00,
2013-03-15 21:42:00,45.0,32.0,29.76,North,357,1.0,9.0,59,0.00,,,0.00,,2013-03-16 01:42:00,
2013-03-15 21:53:00,45.0,32.0,29.76,North,357,1.0,9.0,59,0.00,,,0.00,,2013-03-16 01:53:00,
2013-03-15 22:02:00,44.0,32.0,29.78,NNE,14,4.0,9.0,62,0.00,,,0.00,,2013-03-16 02:02:00,
2013-03-15 22:13:00,44.0,32.0,29.78,NNE,14,4.0,9.0,62,0.00,,,0.00,,2013-03-16 02:13:00,
2013-03-15 22:23:00,43.0,31.0,29.78,North,356,3.0,11.0,62,0.00,,,0.00,,2013-03-16 02:23:00,
2013-03-15 22:33:00,43.0,31.0,29.78,North,356,3.0,11.0,62,0.00,,,0.00,,2013-03-16 02:33:00,
2013-03-15 22:42:00,43.0,31.0,29.78,North,356,3.0,11.0,62,0.00,,,0.00,,2013-03-16 02:42:00,
2013-03-15 22:52:00,43.0,31.0,29.78,North,358,4.0,10.0,62,0.00,,,0.00,,2013-03-16 02:52:00,
2013-03-15 23:02:00,42.0,30.0,29.78,North,10,4.0,8.0,63,0.00,,,0.00,,2013-03-16 03:02:00,
2013-03-15 23:12:00,42.0,30.0,29.78,North,10,4.0,8.0,63,0.00,,,0.00,,2013-03-16 03:12:00,
2013-03-15 23:22:00,42.0,31.0,29.78,North,355,1.0,6.0,64,0.00,,,0.00,,2013-03-16 03:22:00,
2013-03-15 23:32:00,41.0,30.0,29.78,North,6,1.0,4.0,65,0.00,,,0.00,,2013-03-16 03:32:00,
2013-03-15 23:43:00,41.0,30.0,29.78,North,6,1.0,4.0,65,0.00,,,0.00,,2013-03-16 03:43:00,
2013-03-15 23:52:00,41.0,31.0,29.79,North,8,1.0,4.0,66,0.00,,,0.00,,2013-03-16 03:52:00,